RH
97 98 95 91 90 95 100 100 95 88 97 100 98 98 81 75 70 61 50 46 42 39 37 35 30 26 24 22 20 19 21 22 16 10 10 12 13 7 6 6 7 10 10 15
75 76 86 90 85 91 88 81 82 82 99 100 98 97 97 70 53 51 51 54 48 42 37 33 31 28 25 23 24 22 14 11 10 12 17 11 8 9 10 13 11 13 16 20
74 68 64 65 69 80 80 74 74 69 71 88 99 96 95 69 43 43 42 45 44 39 36 32 29 27 24 20 15 12 11 12 18 18 14 11 13 12 14 14 18 18 20 23
60 64 62 61 66 71 74 79 81 68 74 86 70 57 54 45 37 33 31 29 28 27 24 22 19 17 14 12 13 18 18 23 22 19 17 13 15 15 16 18 22 23 28 29
60 58 55 65 78 83 88 92 90 79 55 47 40 36 37 35 33 30 28 24 22 20 17 15 13 12 13 18 24 21 24 30 25 21 22 20 22 22 24 26 29 30 33 35
51 42 41 51 63 64 54 60 70 72 49 42 39 36 34 33 28 24 22 18 15 13 12 14 19 24 29 29 28 30 34 34 29 26 27 30 27 31 38 40 36 33 38 46
39 37 42 46 49 49 49 47 48 44 42 29 24 21 20 18 18 16 13 14 15 15 20 40 48 42 34 35 43 42 38 35 38 36 36 38 42 42 49 50 42 39 47 50
40 36 43 47 44 40 37 33 32 27 22 21 28 28 35 39 42 33 24 19 20 30 47 52 50 46 40 44 47 46 44 47 49 47 42 41 47 59 61 54 47 48 50 51
45 52 48 42 38 41 43 37 27 22 23 31 50 75 87 81 79 74 64 56 51 59 59 57 54 48 40 44 51 56 56 60 56 48 46 51 66 67 62 50 49 51 50 50
57 56 56 55 53 51 50 49 47 36 28 28 39 80 93 89 96 98 94 82 80 71 62 57 50 48 53 55 51 51 58 54 49 54 62 71 75 68 53 55 54 53 55 56
70 67 65 62 62 59 56 53 50 44 43 34 32 44 91 100 98 99 100 95 80 66 55 44 49 56 55 53 50 52 54 55 61 70 74 76 68 56 61 63 61 62 62 56
56 54 54 50 52 50 51 50 47 39 35 41 40 36 63 98 98 99 99 91 72 57 47 51 62 63 61 62 67 60 57 64 72 73 67 59 60 69 68 65 61 62 60 60
34 30 28 30 30 32 35 37 35 33 30 30 36 38 36 62 94 97 99 91 63 54 58 61 61 70 76 77 74 65 68 74 68 58 55 71 80 76 76 69 66 64 64 61
34 30 23 19 20 24 24 28 33 34 31 30 30 32 36 47 89 98 99 95 73 66 75 74 71 78 82 81 80 74 79 83 76 67 69 80 86 90 88 77 67 69 66 64
23 22 21 20 17 18 18 19 22 33 37 37 38 38 35 41 51 94 98 94 80 79 82 77 82 84 82 88 83 83 83 87 87 92 94 92 93 94 92 86 73 71 69 67
25 24 21 20 21 22 20 21 19 23 38 40 40 44 46 48 55 67 97 98 84 82 92 91 95 93 86 86 94 93 93 92 92 93 89 90 94 91 85 81 76 74 72 71
30 30 30 45 48 40 34 33 25 23 39 44 41 41 56 59 60 77 96 97 92 78 93 100 99 99 98 96 97 97 99 100 99 96 96 94 93 92 87 83 80 79 77 77
28 35 54 61 61 56 43 40 32 27 38 39 37 42 41 59 60 58 64 94 100 79 82 97 96 97 99 100 100 100 100 100 100 98 98 98 99 97 91 88 87 88 87 87
60 63 63 68 65 64 55 46 48 38 35 38 38 42 42 39 59 56 55 87 100 84 61 60 69 70 61 68 98 100 100 100 100 100 99 100 100 100 97 93 91 94 96 92
82 77 77 77 73 68 54 51 56 56 54 53 56 51 50 45 47 59 57 85 99 94 64 66 66 48 48 55 96 100 100 100 100 100 100 100 100 100 98 100 98 96 93 93
84 84 90 87 84 74 56 55 57 58 58 57 55 52 52 52 48 59 58 69 92 98 80 64 59 50 59 86 100 100 100 100 100 100 100 100 100 100 100 100 95 96 94 91
87 84 83 92 92 82 71 62 56 50 49 52 56 62 65 66 65 64 60 67 97 99 97 77 71 82 92 97 100 100 100 97 100 100 100 100 100 100 100 100 99 98 91 94
94 86 94 96 86 82 82 77 74 72 70 68 64 59 61 66 67 63 62 63 83 99 100 89 85 89 97 99 100 100 100 100 100 100 100 100 100 100 100 98 100 96 95 96
100 100 100 97 98 100 100 100 100 100 100 99 98 95 86 89 99 100 100 96 96 100 100 98 97 100 100 100 100 100 100 100 100 100 100 100 100 100 100 100 100 93 97 97
49 40 35 42 66 96 98 96 99 100 100 100 100 100 100 100 100 100 100 100 100 100 100 100 100 100 100 100 100 100 100 100 100 100 100 100 100 100 100 100 98 90 91 91
39 33 29 32 31 26 25 35 52 69 87 94 95 96 95 91 100 100 100 100 100 100 100 100 99 100 100 100 100 100 100 100 100 100 100 100 100 100 100 100 99 99 94 90
31 28 26 23 21 22 24 24 25 27 19 17 19 44 88 92 94 97 97 100 100 98 98 100 100 100 100 100 100 100 100 100 100 100 100 100 100 100 100 100 99 100 100 96
Wind_Speed
10 13 16 15 15 16 19 22 22 19 21 19 17 19 22 27 30 31 34 32 32 32 32 32 31 31 31 30 31 30 30 30 29 29 30 29 28 26 24 28 28 28 28 29
13 13 13 13 14 14 15 16 17 19 20 21 19 19 18 20 24 27 31 33 32 30 29 28 28 29 30 28 28 28 28 27 29 27 26 24 22 23 24 27 27 28 26 31
12 13 14 14 16 18 20 21 20 16 16 15 15 17 18 21 22 24 25 25 25 26 26 26 27 28 27 25 26 26 27 27 25 24 22 20 22 24 24 24 25 24 27 31
14 15 15 14 15 16 18 18 18 18 13 15 16 19 21 23 21 21 20 20 21 22 23 23 24 24 24 24 25 25 25 23 21 22 23 26 25 24 23 24 22 24 28 30
11 11 12 12 11 12 12 13 13 13 14 16 18 18 17 19 21 22 21 20 21 21 21 20 21 22 23 24 24 24 23 22 22 23 21 21 21 22 23 23 25 29 28 26
10 10 9 9 9 10 9 12 12 12 13 14 14 14 17 18 19 20 20 19 18 19 19 19 20 19 19 20 21 21 21 22 24 24 21 20 23 25 24 25 28 26 24 25
11 11 10 10 10 11 11 12 15 14 13 13 13 13 14 15 16 16 18 19 19 19 19 17 15 16 18 18 18 19 19 20 22 21 22 24 25 25 26 26 25 23 23 23
11 9 9 9 8 8 10 11 12 13 14 15 14 14 13 14 15 17 18 19 20 20 18 18 16 12 15 15 19 20 20 20 20 20 23 25 26 23 22 23 22 20 21 23
10 10 9 9 10 9 9 9 10 12 12 13 13 13 14 14 15 16 16 17 18 19 18 20 21 19 16 16 16 17 17 19 21 20 20 21 19 19 21 19 20 21 20 21
9 10 10 10 10 11 10 10 11 10 13 14 14 14 13 12 12 13 15 16 17 17 16 17 18 17 15 16 16 16 16 17 17 18 17 18 18 18 17 19 19 19 21 22
15 14 15 15 15 16 16 15 15 15 15 14 15 16 15 14 13 13 15 15 16 16 17 16 15 15 15 16 15 14 15 17 17 17 18 17 16 16 18 18 19 19 21 23
13 16 16 16 19 18 18 18 18 18 18 19 19 18 19 18 17 16 17 16 16 17 17 17 16 16 16 15 15 17 17 16 16 17 15 15 16 17 17 18 18 20 23 22
10 12 12 13 16 18 19 20 19 20 20 21 22 22 21 21 20 18 17 16 16 17 18 17 18 17 18 18 17 16 15 13 14 15 16 17 16 17 19 20 20 22 22 22
12 13 14 16 16 17 19 20 21 20 21 22 23 24 23 23 22 19 18 18 17 18 18 18 18 17 16 17 17 17 15 15 14 16 18 19 20 21 22 21 21 22 22 23
18 20 19 20 20 21 22 22 22 22 21 21 22 24 24 24 25 23 20 20 19 18 18 18 17 16 16 17 18 19 18 18 18 19 20 22 22 21 22 21 22 23 24 24
21 22 22 22 22 23 23 24 24 23 22 21 23 23 24 25 25 25 23 21 21 19 18 19 18 18 17 18 20 21 22 21 21 21 21 20 19 18 19 20 23 24 25 26
26 26 25 23 22 22 22 22 24 25 23 23 21 23 24 25 25 26 26 24 23 22 21 20 20 20 21 20 20 22 24 25 25 24 23 21 20 21 21 22 24 25 26 28
29 26 25 24 24 24 24 22 21 24 25 24 23 23 25 26 26 27 27 27 25 24 24 23 22 23 23 22 23 23 24 25 25 25 25 24 23 23 24 24 25 26 28 30
26 24 24 23 22 21 21 24 25 23 24 24 25 26 25 26 27 27 27 27 27 25 25 24 23 25 27 27 26 26 27 27 26 26 25 25 26 26 27 27 27 28 30 32
21 22 21 21 22 22 20 21 24 26 27 26 24 26 27 26 27 26 27 28 28 28 28 25 25 27 26 27 28 30 30 32 32 30 30 30 30 30 31 29 28 29 32 33
15 15 17 17 18 19 19 17 17 19 22 24 26 25 25 25 25 26 27 28 29 28 29 26 23 22 23 25 27 28 28 27 29 32 33 33 32 33 31 30 31 31 32 34
3 6 9 13 15 18 18 18 18 19 21 21 21 23 23 22 23 25 26 27 27 27 28 26 23 24 25 27 29 31 30 28 30 31 35 35 33 31 31 31 31 33 34 35
8 8 9 8 12 13 14 15 14 14 14 15 17 19 21 21 21 22 24 26 27 27 29 27 26 26 27 27 28 29 30 31 32 33 33 32 31 31 30 31 33 35 35 34
8 10 12 14 13 9 10 13 12 12 13 14 16 16 17 18 19 21 23 24 26 25 27 28 28 27 29 29 30 31 31 32 33 32 30 26 27 28 30 33 35 35 36 37
6 8 9 10 12 12 15 13 12 12 14 16 16 18 18 18 19 18 19 18 22 24 25 26 27 28 28 29 30 29 27 25 25 23 23 26 29 31 32 34 34 35 37 38
9 11 14 14 15 15 14 13 12 14 15 17 17 17 19 18 21 24 22 19 17 18 21 23 24 24 24 23 23 23 23 25 26 28 30 32 32 33 36 37 38 40 38 40
11 15 17 18 17 17 17 17 18 20 21 21 20 20 21 23 22 22 24 27 26 25 26 27 28 28 28 29 30 32 33 34 35 35 34 33 33 34 36 37 40 41 40 40
Wind_Direction
158 158 171 185 190 198 206 215 225 230 230 231 231 218 226 223 225 230 230 234 238 239 241 242 243 244 245 246 247 248 252 255 257 258 264 265 265 256 260 264 276 283 287 296
170 179 191 201 209 210 214 219 228 236 237 238 236 238 227 233 233 233 234 234 241 243 243 244 244 244 244 245 250 252 254 257 260 262 261 264 260 259 266 274 281 286 292 304
187 194 198 206 212 216 221 223 225 232 237 241 236 232 231 231 232 233 237 239 240 241 241 241 242 244 247 248 251 253 256 259 255 258 259 252 264 263 275 276 289 296 298 302
194 200 203 210 215 221 224 228 232 233 230 225 230 229 230 231 236 240 238 236 237 240 243 244 246 248 250 249 253 255 254 249 255 260 257 260 269 270 279 279 288 297 299 302
203 206 199 207 216 224 226 228 229 227 225 222 225 231 232 232 232 235 235 235 235 238 240 242 243 246 250 252 254 251 242 251 252 253 258 260 266 277 282 279 287 295 299 303
213 214 211 217 211 216 225 233 230 227 232 235 238 237 233 234 234 235 234 235 236 236 236 238 246 252 258 258 253 239 247 250 252 254 258 264 271 279 278 281 289 296 300 298
217 216 206 217 222 228 231 228 237 236 239 243 237 242 234 231 231 234 235 235 237 239 240 242 248 257 259 254 238 239 245 254 255 252 259 266 276 277 279 282 294 295 293 297
228 229 228 235 242 236 243 241 235 231 231 233 236 243 239 234 235 236 236 237 236 237 242 234 234 255 252 242 238 244 254 254 252 260 267 268 272 275 278 289 290 291 295 297
235 233 229 230 231 240 246 249 243 233 231 229 226 229 233 230 230 232 233 233 234 237 242 237 246 260 253 243 244 246 247 249 256 261 267 267 268 273 282 282 288 292 294 298
235 233 237 238 241 246 250 247 249 242 236 234 231 228 232 230 229 231 232 230 230 233 233 237 237 238 242 241 241 242 245 251 260 265 268 263 268 274 274 286 288 293 296 301
247 254 256 262 262 261 260 257 252 249 243 243 239 236 234 238 242 244 236 228 228 229 229 231 237 240 240 243 245 247 257 261 264 264 264 267 265 270 283 289 296 297 301 305
246 246 250 251 254 253 254 254 250 247 246 245 244 241 236 238 245 249 235 228 230 234 235 233 234 240 242 243 255 266 266 265 264 263 261 258 266 277 291 298 299 303 305 303
245 255 252 246 253 253 251 249 249 247 246 243 243 243 243 238 240 245 236 234 239 240 240 238 235 238 247 255 257 260 261 260 259 257 255 262 272 286 300 299 299 301 302 305
264 272 272 264 256 258 258 254 249 247 248 245 243 242 240 239 237 241 241 238 242 244 244 238 235 238 243 251 251 254 257 257 258 256 260 269 278 287 295 297 297 303 305 305
267 269 270 269 264 260 257 256 254 248 248 246 244 244 243 239 237 237 244 241 240 244 242 237 238 237 243 246 250 252 255 259 264 269 273 277 282 291 293 293 297 303 304 303
272 273 271 267 264 262 259 255 253 248 245 248 245 244 243 242 239 235 237 242 241 241 241 240 244 244 246 248 252 254 253 262 270 272 274 276 280 293 299 294 299 301 302 303
276 275 271 264 265 263 259 259 253 247 243 246 250 248 245 243 240 237 236 240 243 243 243 244 246 247 249 252 253 253 257 260 266 268 269 276 283 292 299 294 298 300 301 301
273 271 266 264 267 265 254 252 253 244 243 247 251 251 247 244 242 240 240 238 241 242 245 247 249 252 253 255 254 257 259 260 263 265 269 276 279 289 294 293 297 300 301 300
265 265 264 265 262 264 262 248 245 244 245 249 251 252 249 246 244 243 240 238 241 240 241 245 252 259 259 255 253 254 258 257 260 266 273 279 278 289 293 292 295 299 300 301
260 261 262 262 259 257 262 251 244 245 248 251 250 252 254 250 244 245 241 238 241 240 242 248 262 264 258 252 254 253 257 255 259 263 271 277 280 286 290 289 295 300 301 301
259 259 257 258 257 252 248 249 247 249 250 252 248 252 255 254 246 246 244 241 242 244 244 250 260 259 256 255 252 257 261 259 264 271 271 275 279 283 285 289 295 297 299 301
262 271 272 261 256 246 250 257 256 261 259 254 250 249 253 251 246 246 246 244 244 246 241 246 252 258 258 257 254 256 262 264 268 269 271 272 276 278 282 288 292 295 298 300
343 344 347 313 272 265 259 259 260 256 257 258 257 254 251 248 248 251 250 247 246 249 244 244 248 255 260 261 258 259 262 265 266 267 268 269 270 276 282 288 292 297 299 300
314 300 299 306 307 306 271 257 249 257 265 266 266 259 256 254 254 256 254 247 246 252 252 249 252 256 257 258 261 263 265 266 266 264 261 265 274 281 286 288 293 297 298 299
328 331 339 338 333 311 297 295 289 273 266 270 262 257 260 260 257 258 255 255 247 249 246 246 248 253 258 261 265 267 266 265 262 261 268 274 282 288 290 289 291 295 297 298
297 306 312 306 304 301 298 297 293 286 281 277 274 268 261 263 260 250 254 254 259 262 262 262 263 264 263 262 261 262 264 267 272 274 276 279 281 282 284 286 286 290 294 300
308 308 311 315 305 297 293 290 283 282 281 277 273 273 270 267 266 261 258 255 256 264 269 269 269 268 268 268 267 267 268 270 271 271 274 275 277 277 278 284 286 287 288 293